Wind_Speed
10 11 11 10 10 10 10 9 9 9 10 10 9 9 8 7 7 7 8 8 9 10 9 8 5 3 0 1 2 3 2 3 3 4 5 5 5 6 7 7 7 8 8 8 8 9 9 9 8 8 8 8 8 8 8 7 7 6 6 5 5 5 4 4 4 4 5 6 6 6 7 7 7 7 8 9 10 10 11 11 11 11 11 11 11
9 9 10 9 9 9 9 9 8 8 8 9 9 8 8 7 7 7 7 7 8 9 9 8 7 4 2 1 2 2 2 2 2 3 5 5 5 6 6 6 6 6 7 7 7 8 8 8 8 8 8 7 7 7 7 7 6 5 5 5 5 5 4 5 5 5 6 6 6 6 6 7 7 7 8 8 9 10 10 11 11 11 11 11 11
8 8 8 9 9 8 8 8 8 8 8 8 8 7 7 6 6 6 6 6 7 8 9 8 7 6 3 3 2 2 1 1 1 2 5 6 7 6 5 5 5 5 5 5 5 6 6 6 7 7 7 6 6 6 6 6 6 5 5 5 5 5 5 5 6 6 6 6 6 6 7 7 7 8 8 8 9 9 10 10 11 11 11 11 11
8 8 8 8 8 8 8 7 7 7 7 7 7 6 6 5 5 5 6 6 6 7 8 8 7 7 5 5 4 3 2 1 2 3 6 7 7 6 5 4 5 5 5 4 4 3 4 5 5 6 5 5 5 3 3 3 3 4 4 5 6 6 6 6 6 6 7 7 7 7 8 8 8 8 9 9 9 10 10 10 11 11 11 11 11
9 8 8 8 7 7 7 7 6 6 6 6 6 5 5 5 5 5 5 5 6 6 7 7 7 7 6 6 6 5 3 2 3 5 7 8 7 6 5 4 4 4 4 4 3 2 3 4 3 3 4 4 2 1 1 2 2 2 3 5 6 7 6 6 6 6 7 7 8 8 9 9 10 10 10 10 10 11 11 11 11 11 11 11 11
9 8 8 7 7 7 6 6 6 5 5 6 6 5 5 6 6 6 6 5 5 5 6 6 6 6 6 7 7 6 5 3 4 5 7 7 7 6 5 4 4 4 4 4 4 4 3 3 3 3 2 3 1 1 2 3 3 3 4 5 5 6 5 5 6 7 7 8 8 9 10 10 11 11 11 12 12 12 12 12 12 12 12 12 13
8 8 7 7 6 6 6 5 5 5 5 5 5 6 6 6 7 7 7 6 5 5 5 5 5 6 6 6 7 7 6 4 4 5 6 6 6 5 5 5 4 4 4 3 4 4 3 3 3 3 3 3 2 2 3 4 4 3 5 5 5 5 5 5 6 7 8 9 9 10 11 11 11 11 12 12 12 12 12 12 12 13 13 14 15
7 7 7 6 6 5 5 5 4 4 4 4 5 5 6 6 6 7 7 7 6 5 4 4 4 5 6 6 6 6 5 5 4 4 4 4 4 4 4 4 4 4 4 3 4 3 2 2 3 4 4 4 2 3 4 4 4 4 5 6 6 5 5 5 6 6 8 9 9 9 10 10 10 10 11 11 11 11 11 12 12 13 14 14 15
6 6 6 5 5 4 4 4 4 4 4 4 4 4 5 5 5 5 7 8 6 5 4 4 3 3 4 6 6 6 5 5 4 3 3 3 3 3 3 3 3 3 3 3 4 3 3 3 3 3 3 2 1 2 2 2 3 4 5 5 5 4 4 5 5 6 7 7 7 7 8 9 9 10 10 10 11 11 11 12 12 12 12 13 13
5 5 5 4 4 4 4 4 4 4 4 3 3 4 4 4 4 4 6 6 6 5 5 4 3 2 3 5 6 6 5 5 5 4 3 3 3 3 3 2 2 2 2 3 3 3 3 3 3 3 2 1 1 1 2 2 3 4 4 4 4 4 4 4 5 5 6 6 6 7 8 9 10 11 11 11 11 11 12 12 12 12 12 13 13
5 4 4 4 3 3 3 4 4 4 4 3 3 4 4 4 4 5 6 5 5 6 5 5 4 3 3 3 5 5 5 6 5 5 4 4 4 3 2 1 1 2 2 3 3 3 2 2 1 1 0 1 2 2 2 2 3 4 5 6 6 6 6 5 5 5 6 7 8 8 9 9 10 11 11 11 11 11 12 12 12 12 12 12 12
4 4 4 4 3 3 3 3 3 4 3 3 3 3 4 4 4 5 6 5 5 6 5 4 4 4 4 4 4 4 4 5 4 4 4 4 4 2 1 0 1 0 1 3 3 3 2 1 0 1 1 2 2 2 2 3 5 6 6 7 7 6 6 5 6 6 7 8 9 9 9 9 9 9 10 10 10 10 10 10 10 11 10 10 10
5 4 4 4 4 3 3 3 3 3 3 2 2 3 3 4 4 5 5 5 5 5 5 4 3 4 4 4 3 3 3 4 4 4 4 4 3 1 1 2 2 2 3 4 4 3 3 2 1 2 2 2 3 3 5 6 6 7 8 8 7 7 6 6 6 7 9 9 9 8 8 8 8 8 8 9 9 9 9 9 9 9 9 9 9
5 5 5 5 5 4 3 3 3 3 3 3 2 2 2 3 3 4 5 5 5 5 5 5 4 4 4 3 3 2 3 4 5 5 4 3 3 3 3 3 3 4 6 7 6 6 5 4 4 4 4 5 5 6 6 7 7 8 8 7 7 7 7 6 7 8 10 10 8 7 7 7 7 7 8 8 8 8 9 9 9 9 9 9 9
6 6 5 6 6 5 4 3 2 2 3 3 3 2 3 3 3 4 4 5 6 6 6 6 4 4 5 4 2 2 2 5 6 5 2 2 3 4 5 4 4 6 8 9 8 7 6 6 5 6 6 7 7 7 7 7 7 7 7 7 7 7 7 7 7 9 10 10 9 8 8 7 7 8 8 8 9 9 9 9 9 10 10 10 10
8 7 7 7 7 6 5 3 3 3 3 4 4 3 2 3 3 4 5 5 6 7 7 7 5 5 5 4 3 4 3 4 6 4 0 3 4 5 6 6 5 6 7 7 6 6 6 6 5 6 6 6 6 6 6 7 7 7 8 8 8 8 7 7 8 10 10 10 10 9 9 9 9 9 9 10 10 11 11 10 10 11 11 11 11
9 8 8 7 7 7 5 4 3 3 3 3 3 2 2 2 3 4 5 5 6 7 7 7 6 6 6 5 4 4 4 5 6 4 2 3 4 5 5 5 4 4 5 5 5 5 6 6 6 6 6 5 5 6 6 7 8 9 9 9 9 9 9 9 9 10 10 9 9 9 10 10 10 10 10 11 12 12 11 11 11 11 11 11 12
10 9 9 8 7 7 6 5 4 3 2 2 2 2 2 2 2 3 4 5 5 6 7 6 6 6 6 6 5 4 5 6 6 5 4 3 3 4 4 3 3 3 4 4 4 4 5 6 6 6 6 5 5 6 6 7 8 10 10 10 11 10 10 10 10 10 9 9 9 9 10 10 11 11 11 12 12 11 11 11 11 11 12 12 12
11 10 9 8 8 7 6 5 4 3 2 2 2 1 1 1 2 2 3 4 5 5 6 6 5 6 6 6 7 6 6 7 7 6 4 3 3 2 2 2 2 3 3 3 3 3 4 5 5 5 5 6 5 6 6 7 8 9 10 11 11 11 10 10 11 11 12 11 11 11 11 11 12 12 12 12 12 12 12 12 12 12 12 13 13
12 11 10 9 8 8 7 6 5 4 3 1 1 0 0 1 1 1 2 3 4 4 5 5 4 5 5 6 7 7 7 8 7 6 5 3 3 2 1 0 1 2 3 3 4 4 3 4 5 5 5 5 5 6 8 8 8 9 9 10 10 11 11 11 12 13 14 14 14 14 13 13 13 13 13 13 13 14 14 14 14 14 14 14 14
13 11 10 10 9 8 7 6 5 5 4 2 1 1 1 2 2 1 2 2 3 3 5 5 4 4 4 5 7 8 8 9 8 7 6 5 4 4 3 2 0 1 3 4 5 5 4 4 5 5 5 5 6 7 8 8 8 8 9 10 10 11 12 13 13 14 14 15 15 15 15 14 14 14 14 15 15 15 15 15 16 16 16 16 16
14 12 11 10 9 8 7 7 6 6 4 3 2 2 3 3 2 1 1 2 2 2 3 4 4 4 4 4 6 8 8 8 8 8 7 6 6 5 4 2 1 2 4 5 6 6 5 4 4 4 4 5 5 6 7 7 8 8 10 10 11 12 12 13 13 13 14 14 14 15 15 15 16 16 16 17 17 17 17 17 17 17 17 17 17
15 14 11 10 9 8 7 7 7 6 5 4 4 4 4 3 3 2 2 2 1 2 2 3 3 3 3 3 4 6 7 8 7 8 8 7 6 5 4 2 2 2 4 5 5 5 4 3 3 4 4 5 6 6 7 7 8 9 10 11 11 12 12 13 13 13 14 14 15 15 16 17 17 18 18 19 19 19 19 19 19 18 17 17 18
16 14 13 11 10 9 8 8 7 7 7 6 6 5 5 4 4 3 3 2 2 1 2 2 2 2 1 2 3 4 5 6 6 7 8 7 6 5 4 3 2 3 4 5 5 4 4 4 4 4 5 6 6 7 8 8 9 9 10 11 11 12 12 13 13 14 14 15 16 17 18 18 19 20 20 20 20 20 21 20 20 19 19 19 19
17 15 13 13 11 11 10 9 8 8 8 8 8 7 6 6 5 5 4 3 2 1 1 1 2 1 1 2 3 3 4 5 5 6 6 6 5 4 3 3 3 4 5 5 5 6 6 6 6 7 7 7 7 8 8 9 9 10 10 11 12 13 13 14 15 15 16 17 18 19 20 20 21 21 21 21 21 21 21 22 21 21 21 21 20
18 16 15 15 14 13 12 10 10 9 9 9 10 9 8 8 7 7 6 5 4 2 1 0 1 1 2 3 3 4 5 6 5 5 5 5 4 4 4 5 5 6 6 7 7 7 8 8 8 8 8 8 8 8 8 9 9 10 11 12 13 14 15 16 16 17 18 18 19 20 20 20 21 21 21 21 21 21 21 22 22 22 22 22 21
20 18 17 16 15 15 14 13 12 11 11 11 11 11 10 10 9 9 9 7 6 4 3 2 2 2 3 4 4 5 6 7 6 6 6 6 6 6 7 8 8 8 8 8 8 8 8 8 8 7 7 7 7 7 8 8 9 10 12 12 13 14 15 16 16 17 18 19 19 20 20 20 20 21 21 21 21 21 21 21 21 22 22 22 21
22 20 19 17 16 16 16 15 14 13 13 12 12 12 12 12 11 11 11 10 8 7 5 4 4 4 5 6 6 7 8 8 8 8 8 8 8 8 8 8 8 8 7 7 6 5 5 5 5 5 6 6 6 7 7 8 9 10 11 12 13 13 14 15 16 16 17 18 19 19 20 20 20 20 21 21 21 21 21 21 21 21 21 21 22
24 22 20 19 18 17 17 16 16 15 15 14 13 13 13 13 13 13 13 13 11 9 8 7 6 7 8 8 8 9 9 9 9 9 9 9 8 7 7 6 6 5 5 4 3 2 2 3 4 4 5 6 6 7 8 8 9 10 11 12 13 13 14 15 16 16 17 17 18 18 19 19 19 20 20 21 21 21 21 21 21 21 21 21 22
25 23 22 21 19 18 17 17 17 16 16 15 15 14 14 14 15 15 15 15 14 12 11 10 9 9 10 10 10 10 10 10 9 9 9 8 8 6 5 4 3 3 2 1 0 1 2 2 3 4 5 6 7 8 9 10 10 10 11 12 13 13 14 15 16 16 17 17 18 18 18 18 19 19 20 20 21 21 22 22 22 22 22 22 22
26 24 23 22 20 19 18 17 17 17 16 16 15 15 15 15 16 17 17 17 17 15 14 13 12 12 12 12 11 11 11 10 10 9 8 7 6 5 4 3 2 2 2 2 2 3 3 4 4 5 5 5 7 8 9 11 11 11 11 12 13 14 14 15 16 16 17 18 18 19 19 19 19 20 20 21 21 22 22 23 23 23 23 23 23
26 25 24 23 21 20 18 17 17 16 16 15 15 15 15 15 17 18 19 19 19 18 17 16 15 14 14 13 12 12 12 11 10 9 8 7 6 5 4 4 4 4 4 4 4 5 6 6 7 7 7 6 6 8 9 11 12 13 13 13 14 15 15 16 16 17 18 19 20 21 21 21 21 21 21 22 22 22 23 23 24 24 24 24 24
27 26 26 24 23 22 20 18 17 17 16 15 15 15 16 15 17 19 21 21 21 21 20 19 18 17 17 16 14 14 14 13 12 11 10 9 9 8 7 7 7 8 8 8 7 8 8 9 10 10 10 9 9 10 12 13 14 15 16 16 17 18 18 18 18 19 20 21 22 22 23 24 24 24 24 24 24 24 24 24 25 25 25 25 25
28 28 27 26 25 23 22 20 18 17 16 16 15 16 16 16 17 19 21 23 23 23 23 22 21 20 20 18 17 16 16 15 14 13 13 12 12 11 10 11 11 11 12 12 12 11 10 11 13 13 13 14 13 14 15 16 17 18 19 19 20 20 21 21 21 21 22 23 25 25 25 26 27 28 27 27 26 26 26 26 26 27 26 26 26
29 29 28 27 26 25 23 21 19 18 17 16 16 15 15 16 17 18 21 24 25 25 26 25 24 23 23 21 20 19 19 18 17 16 16 15 15 14 14 15 15 15 15 16 16 15 14 14 15 16 17 18 18 18 19 20 21 22 22 23 23 24 24 25 26 25 25 27 28 28 28 29 30 31 31 30 30 30 29 28 28 28 29 28 28
30 29 29 28 27 26 25 22 20 18 17 17 16 16 15 16 17 18 20 23 25 26 27 27 27 26 25 24 23 22 22 21 20 19 19 18 18 18 18 18 19 19 20 20 20 20 20 18 17 18 20 21 22 22 23 24 25 26 26 26 27 27 28 29 29 29 30 31 32 32 32 32 33 33 34 34 34 33 33 32 31 31 31 31 30
30 30 29 28 28 27 25 22 20 19 18 17 17 16 16 16 16 17 19 21 23 25 26 28 28 28 27 26 25 25 24 23 22 22 22 22 22 22 22 22 23 23 24 24 24 25 25 24 22 22 23 24 25 25 26 28 29 29 29 29 30 31 31 33 33 33 34 35 36 36 36 37 37 37 37 38 37 37 37 36 35 34 34 34 34
29 29 29 28 27 26 24 22 21 19 19 19 18 17 17 17 17 17 18 18 20 22 24 26 28 29 29 28 27 27 27 26 25 25 25 25 26 25 25 26 26 27 27 28 28 29 30 29 28 27 27 28 29 29 29 30 32 33 33 33 34 34 34 36 37 37 37 39 39 40 40 40 41 41 41 41 41 41 41 41 40 39 39 38 38
29 29 29 28 27 25 24 23 21 20 20 20 20 19 18 18 18 17 17 16 17 18 20 23 25 27 28 28 28 28 28 28 27 27 27 28 28 28 28 28 29 30 31 31 32 32 33 33 33 32 32 32 33 33 33 33 35 36 36 37 38 37 37 38 39 39 40 41 42 42 43 43 44 45 45 44 44 44 45 45 44 44 43 42 41
30 29 29 28 26 25 25 23 22 21 21 22 22 20 19 19 18 17 16 16 15 15 17 19 21 23 24 25 26 27 27 27 27 28 28 28 29 30 30 30 31 32 32 33 34 34 35 36 36 35 36 36 35 35 35 35 35 35 36 38 39 38 37 38 38 38 39 41 42 43 43 43 44 45 46 46 45 44 44 43 42 42 41 42 42
31 30 29 28 27 26 25 24 23 22 22 23 23 21 20 20 19 18 17 16 15 15 15 16 17 18 19 20 21 21 22 23 24 25 25 26 28 28 28 29 31 32 32 33 33 34 35 36 36 35 36 36 35 34 34 34 34 34 34 36 37 37 37 38 38 37 37 40 41 42 42 42 42 43 44 44 43 41 40 39 38 38 39 40 41
32 31 30 29 28 27 26 25 24 22 22 22 22 22 22 21 20 19 19 18 17 17 17 17 17 16 16 17 17 18 18 19 21 22 23 24 25 26 27 28 29 30 31 31 31 31 32 33 33 33 33 32 31 31 32 33 34 34 35 36 38 38 38 38 38 37 37 38 40 40 41 41 41 41 42 43 42 40 39 38 38 39 41 41 41
32 31 31 30 29 27 26 26 25 23 21 21 22 23 23 22 22 21 20 19 19 19 19 19 18 18 18 18 19 19 20 20 21 22 23 24 25 26 26 27 28 29 29 29 30 29 30 30 30 30 31 30 29 30 32 32 33 35 35 36 38 39 38 37 37 36 35 37 40 40 39 40 42 41 42 42 42 41 40 40 41 42 43 43 42
31 31 31 30 29 27 27 26 25 24 22 21 22 23 24 23 22 22 21 20 20 20 20 19 19 20 20 21 21 22 22 22 23 24 25 25 26 27 27 27 28 28 29 30 30 30 30 29 28 28 29 29 29 31 32 33 35 37 38 39 40 40 38 38 38 36 33 36 41 40 36 38 43 44 43 42 42 41 41 41 43 44 45 45 44
31 31 32 31 29 29 28 27 25 25 23 22 23 23 24 24 23 22 21 21 21 21 21 20 20 21 21 22 23 23 23 23 25 25 25 25 26 26 27 27 26 26 27 27 28 28 28 28 28 27 28 30 32 33 35 37 39 42 43 42 41 40 39 40 40 36 32 33 38 36 31 32 37 41 40 39 40 41 42 43 44 46 46 46 45
31 32 32 31 30 30 29 28 27 26 25 24 24 24 25 25 25 24 23 23 23 23 22 22 22 22 23 23 23 23 24 25 25 25 24 23 22 22 23 22 21 21 23 24 25 26 28 30 31 30 30 33 34 36 39 41 44 46 45 41 40 40 39 37 36 34 29 29 32 32 30 28 31 34 34 34 36 38 40 43 43 43 44 45 45
30 31 31 31 31 31 31 30 29 28 26 25 25 26 26 26 26 27 26 26 25 25 24 24 24 24 24 24 24 24 24 23 22 21 20 18 18 19 18 18 19 20 22 24 25 28 30 32 34 35 34 34 35 38 41 44 48 49 46 41 40 40 35 31 31 30 26 25 29 33 34 32 31 33 33 34 37 37 38 40 40 39 40 42 43
29 29 30 30 31 31 31 31 31 30 28 26 26 26 27 27 28 29 29 28 28 27 25 25 25 25 25 24 24 23 21 19 18 18 18 17 18 19 19 20 21 23 25 26 27 29 32 34 37 38 38 37 38 40 43 46 48 48 45 41 38 35 31 30 32 32 29 28 31 35 38 38 37 38 40 39 41 42 40 39 39 38 39 41 42
27 27 27 28 28 28 29 31 31 30 29 28 27 27 27 29 30 30 30 29 29 28 27 26 26 25 25 24 23 22 20 18 18 19 19 20 21 22 22 23 24 25 27 28 29 31 34 36 39 40 40 40 40 40 43 45 45 43 41 38 34 32 32 32 33 34 34 35 35 36 41 44 42 44 48 46 46 47 45 42 40 38 38 40 42
24 24 24 24 25 25 27 28 28 27 27 28 28 28 28 29 30 31 31 30 30 29 27 26 26 26 25 23 23 23 21 19 19 21 22 22 23 24 24 25 26 27 28 29 31 33 34 37 39 40 40 40 39 39 40 39 38 37 37 35 34 35 36 35 36 38 39 40 40 40 45 49 48 49 51 52 51 49 47 45 42 39 38 38 39
23 23 23 23 23 24 24 24 24 25 26 27 28 29 29 30 31 31 31 31 30 29 28 27 27 26 25 24 24 24 22 21 22 23 24 24 25 26 27 28 28 29 30 32 34 34 35 36 37 38 38 39 39 39 38 36 34 34 36 37 37 38 39 40 41 44 45 45 47 48 51 53 53 51 51 52 54 52 48 46 43 39 38 38 38
Wind_Direction
94 95 97 98 98 96 94 95 96 95 94 92 90 87 87 88 87 83 78 76 76 75 68 59 48 28 0 186 182 176 168 155 142 142 142 135 126 113 109 107 103 102 98 95 93 90 89 88 86 85 84 81 80 81 80 80 81 81 82 78 74 73 70 61 48 37 29 25 21 17 16 14 11 7 4 2 0 358 355 354 354 351 348 346 344
94 93 94 95 95 92 90 92 93 94 91 88 85 81 80 83 85 81 75 73 73 76 73 62 51 43 42 117 168 173 163 151 141 151 154 150 144 126 118 112 105 104 101 98 93 88 87 85 83 80 77 75 74 74 72 70 68 67 65 62 61 61 58 52 42 33 26 22 18 16 13 10 7 3 359 357 356 352 349 349 349 347 344 343 342
95 95 95 93 91 87 83 82 85 86 85 82 80 79 79 81 85 82 77 74 73 76 76 66 51 51 69 93 120 141 135 126 123 155 158 154 149 138 130 117 108 107 105 102 95 92 91 84 81 78 74 72 69 66 63 59 55 52 48 43 40 39 39 37 33 28 21 15 13 11 6 2 357 352 349 347 346 344 344 343 341 339 337 338 339
99 99 98 95 90 86 80 76 76 77 77 76 77 78 78 80 83 81 77 74 74 75 77 70 52 52 77 98 110 120 115 98 103 133 146 147 148 148 146 130 121 121 117 114 110 104 100 93 88 84 81 76 67 60 60 57 51 46 40 33 22 17 15 17 15 16 15 9 5 1 354 350 346 343 340 338 338 337 336 335 332 330 330 332 333
106 105 103 100 94 88 82 76 74 74 73 73 77 82 83 87 89 84 79 77 79 79 80 77 60 55 78 98 108 112 111 103 109 123 132 138 143 150 154 148 144 142 139 142 145 142 125 113 106 103 100 96 85 336 335 356 11 18 14 17 15 7 357 355 354 355 1 356 351 348 344 342 338 334 330 328 329 329 330 329 327 326 325 327 328
113 113 110 106 99 91 84 80 80 79 76 75 77 80 83 89 95 92 87 85 87 87 88 87 77 67 79 100 110 116 121 119 119 124 128 133 139 147 150 150 151 146 150 156 149 150 149 142 138 143 144 137 169 282 309 313 326 343 341 352 7 2 343 326 330 338 343 342 340 337 334 332 328 325 322 322 322 323 324 323 322 321 320 321 321
119 119 117 110 102 94 87 83 82 79 77 75 73 76 79 84 91 91 89 91 95 94 91 93 93 86 88 106 123 129 131 131 134 135 135 137 138 144 148 152 153 148 153 153 145 155 160 164 166 169 188 191 214 276 292 300 323 336 335 341 347 351 339 314 313 327 334 335 332 328 325 323 320 319 318 318 319 318 317 316 316 315 314 316 317
126 124 120 113 103 95 90 88 84 77 74 73 73 76 78 82 85 87 91 94 99 103 98 95 97 99 103 116 133 140 139 138 143 150 153 152 148 153 157 159 162 158 159 151 152 168 153 159 181 185 204 214 232 276 284 298 330 338 339 340 334 343 348 324 316 327 333 333 328 323 321 319 319 318 318 318 318 318 317 318 318 318 319 321 322
132 129 122 111 102 94 91 92 87 77 72 70 69 72 77 81 81 85 89 90 95 105 111 104 95 98 104 114 126 137 149 151 153 165 176 176 171 169 168 167 173 174 172 159 158 164 138 134 151 160 189 222 246 275 284 305 333 339 342 342 337 347 348 331 331 339 340 336 332 329 325 323 323 323 324 325 326 327 328 329 330 330 331 333 334
137 132 124 114 105 104 98 92 90 83 73 66 60 61 67 73 73 77 82 87 92 102 120 123 117 117 106 106 111 125 154 163 166 186 200 200 193 181 177 185 206 209 203 183 168 169 159 143 137 137 162 236 276 300 318 324 338 348 358 9 9 10 4 358 359 354 346 341 340 337 333 333 334 334 335 336 338 339 340 340 340 340 341 341 342
146 142 134 129 126 124 113 100 96 92 80 63 51 48 56 63 66 67 69 74 79 90 115 128 128 135 128 110 100 110 150 167 175 197 209 214 214 199 187 222 262 246 216 196 179 175 180 173 153 132 92 307 312 324 332 345 10 25 36 43 42 38 33 27 16 3 354 350 348 344 341 343 342 341 341 341 342 342 342 341 340 340 340 340 341
161 162 160 155 155 144 126 113 100 95 91 72 46 47 56 59 54 56 63 70 74 75 85 104 117 124 125 119 103 103 141 167 189 212 223 232 233 219 176 54 332 278 190 185 179 170 165 155 106 52 20 4 358 4 26 47 58 59 57 55 52 48 41 30 18 9 2 357 352 347 344 345 343 342 342 341 340 339 337 335 334 334 333 333 334
179 184 185 174 169 164 150 132 115 100 92 79 52 52 60 57 45 44 57 74 85 79 73 77 88 97 104 108 112 125 147 169 206 234 246 260 271 293 45 64 58 84 126 144 150 149 139 115 78 56 50 46 49 61 72 73 69 64 60 56 50 43 34 25 17 8 3 358 354 351 349 347 346 346 346 344 341 338 335 332 330 329 328 329 329
196 203 200 185 178 178 173 149 127 107 87 77 62 56 58 54 44 39 46 58 72 78 75 71 69 83 97 99 105 136 155 172 203 232 256 292 326 355 29 58 72 97 111 115 117 117 109 95 79 74 73 72 74 76 74 66 59 56 52 45 36 29 24 19 11 4 1 1 1 1 358 355 352 350 348 347 345 342 339 336 333 332 331 331 330
207 215 211 195 189 185 179 165 138 102 85 80 73 63 50 44 39 37 40 44 54 66 75 78 74 81 94 99 109 136 163 180 196 218 252 350 14 20 34 59 81 97 103 103 103 101 95 88 79 72 70 69 71 68 61 56 52 47 38 27 21 19 16 12 5 1 3 7 10 11 10 7 3 358 354 353 351 347 343 341 340 339 337 335 334
215 219 217 205 198 190 181 171 143 106 83 76 75 67 44 35 27 29 36 41 49 62 73 79 79 76 84 95 118 135 154 174 185 200 219 36 33 34 46 65 81 88 88 87 88 88 86 83 80 76 72 69 69 66 60 53 43 32 20 15 14 13 10 6 4 3 7 10 12 14 16 15 12 5 0 358 354 348 345 343 342 341 338 335 335
219 221 219 213 207 197 186 171 143 118 85 69 68 66 50 36 27 24 30 37 47 59 67 73 78 83 92 97 108 126 141 157 167 166 126 74 50 49 58 66 70 65 63 63 66 70 75 78 79 79 75 72 76 75 64 45 30 22 18 18 20 19 14 10 8 7 9 11 12 15 16 15 12 5 0 358 355 350 349 348 345 343 340 338 336
220 221 220 217 212 205 193 176 155 132 98 67 58 60 56 44 37 23 22 38 50 57 64 70 77 87 97 100 103 119 137 148 153 147 133 108 82 79 77 66 53 44 39 45 50 53 65 75 76 75 75 74 71 64 51 34 26 26 28 30 30 27 21 16 13 11 12 16 19 21 20 19 15 9 5 3 360 357 357 356 353 351 347 343 342
221 220 220 218 213 210 201 186 168 146 127 83 56 57 53 35 36 19 12 35 51 58 65 68 73 86 102 112 114 124 139 146 148 144 140 130 117 115 104 65 51 49 43 49 55 51 58 71 74 73 75 73 60 40 27 22 25 32 35 35 33 30 27 24 23 22 22 23 26 27 26 25 21 17 15 12 8 6 3 2 359 356 352 349 348
220 220 220 220 213 210 205 194 178 163 164 156 97 327 309 334 349 3 4 24 44 54 63 65 70 81 101 125 133 138 144 148 150 152 155 159 156 158 161 27 37 56 57 56 60 64 67 72 76 77 73 61 41 23 17 17 27 38 40 37 36 35 34 33 33 32 30 29 29 29 29 28 26 22 19 16 13 11 9 6 2 359 357 355 353
219 220 221 223 218 212 207 201 192 184 188 194 203 254 273 279 291 325 347 10 38 48 56 64 73 83 97 125 143 148 149 153 159 166 173 176 179 192 206 214 195 68 61 57 61 73 82 78 74 74 62 42 26 20 21 24 33 43 46 44 41 38 37 35 34 33 32 32 30 29 29 28 26 23 19 17 15 13 11 8 5 3 0 357 354
217 220 220 223 225 220 213 209 206 201 203 208 214 242 260 266 273 285 308 347 34 50 56 61 71 87 101 123 146 154 157 163 171 179 183 186 193 203 210 205 174 84 71 66 68 76 80 75 62 51 41 35 33 35 38 40 42 47 48 47 44 40 38 35 33 30 28 28 27 25 24 23 22 21 19 17 15 13 11 9 7 3 359 357 355
217 219 218 221 227 228 224 219 218 216 216 219 220 235 254 262 262 260 272 312 358 43 57 53 59 80 103 123 142 154 165 172 177 184 187 189 197 205 205 187 150 100 84 76 72 73 73 69 52 39 40 47 55 60 59 56 50 48 48 47 46 43 39 36 31 27 24 23 22 21 21 20 19 18 17 15 13 11 9 8 5 1 358 357 357
219 219 219 222 227 231 231 229 228 227 227 227 227 234 245 251 253 251 255 275 306 9 45 50 54 66 97 128 134 144 162 171 173 179 181 182 187 195 193 167 129 98 85 79 78 81 82 83 78 72 69 67 69 69 67 63 57 51 48 46 45 42 38 35 30 26 23 21 20 19 19 19 18 17 15 13 11 9 7 5 2 -0 359 359 359
222 221 222 224 226 229 230 230 232 232 230 230 231 233 238 243 247 248 247 251 268 315 17 51 58 78 141 158 152 143 150 158 163 170 172 174 180 182 167 135 109 90 85 86 87 89 93 95 94 91 87 82 77 71 66 63 58 53 48 42 39 35 33 30 27 24 22 20 20 19 19 18 17 15 13 11 9 8 6 3 0 359 359 359 358
225 225 225 225 225 226 227 228 232 234 233 233 232 232 234 237 241 244 244 241 242 251 245 180 104 155 180 180 170 155 152 157 158 160 160 161 160 149 128 112 101 94 89 91 91 92 95 96 94 92 88 82 75 68 63 57 50 45 40 35 32 29 26 24 21 19 18 17 17 17 16 16 15 13 12 10 8 6 5 2 360 358 357 356 354
224 227 229 228 226 226 227 228 232 235 236 235 235 233 232 233 236 240 242 238 233 234 227 212 196 181 183 183 174 164 159 157 151 146 143 139 132 125 117 107 101 98 94 93 92 92 92 91 89 85 80 74 67 59 50 43 38 33 30 27 25 23 21 18 16 13 12 11 10 9 9 9 8 8 7 6 5 4 3 2 360 358 355 351 349
223 226 230 232 230 228 228 229 233 236 236 236 236 234 232 231 232 236 239 237 232 229 224 214 202 186 177 175 171 164 159 154 148 143 139 134 130 124 117 111 106 103 100 95 91 85 82 77 72 66 60 53 45 37 31 28 26 23 20 17 15 13 12 9 7 5 4 2 1 0 -0 359 359 359 358 358 358 358 358 358 357 355 351 347 343
223 225 228 232 232 231 231 231 233 236 237 237 237 236 234 231 230 231 235 235 231 227 223 215 204 189 179 177 174 169 163 159 155 152 148 144 140 133 126 123 119 116 111 101 89 72 52 39 32 27 25 23 17 12 9 8 11 11 8 6 2 0 360 358 356 355 353 352 350 350 349 349 349 349 349 349 349 350 350 351 351 349 346 342 339
223 224 227 230 232 233 233 234 234 236 237 238 240 240 237 232 230 228 230 231 229 226 222 216 207 195 188 185 183 179 176 172 169 166 164 161 156 150 146 145 142 140 137 135 197 306 331 346 351 351 357 359 356 353 350 348 350 353 353 352 348 346 346 345 344 343 341 340 339 337 337 338 338 339 339 341 341 342 342 343 343 342 341 339 337
222 224 226 229 232 234 234 234 235 236 238 240 242 243 240 235 231 228 227 228 227 224 222 217 210 202 197 195 194 193 190 187 185 183 183 183 181 179 182 189 204 214 215 241 273 285 291 299 310 318 325 331 333 334 332 330 330 330 332 333 331 329 329 330 331 331 330 329 328 325 325 326 328 329 331 332 334 335 335 336 336 336 336 335 334
222 224 226 228 231 234 235 234 236 239 242 243 244 243 240 234 230 228 226 226 225 223 221 218 212 207 205 205 206 206 203 201 201 202 205 210 214 219 230 244 258 264 259 256 265 273 278 281 284 289 293 294 300 305 305 306 308 309 311 314 314 313 314 317 319 320 320 320 318 317 316 316 318 320 323 324 326 327 327 328 329 329 330 330 329
222 224 227 229 231 234 235 236 237 241 244 244 244 242 237 231 227 225 224 224 223 222 221 218 214 212 211 212 215 216 214 214 216 219 223 230 235 239 248 257 263 270 271 264 258 258 264 268 269 271 274 274 275 282 284 285 289 293 296 299 300 302 304 307 309 311 312 311 310 309 309 310 312 313 315 316 317 319 319 320 321 322 323 324 324
222 224 227 229 231 234 236 237 237 240 243 243 243 241 236 230 224 222 222 222 221 220 219 218 216 215 215 216 220 222 222 223 226 230 234 239 244 248 255 261 265 269 273 272 266 259 252 256 265 271 272 273 274 276 277 279 282 285 288 291 292 294 298 300 301 302 303 302 302 303 304 305 307 307 308 309 310 311 312 313 314 315 316 316 317
221 224 226 228 232 235 237 237 237 238 239 239 240 239 235 229 225 221 220 221 221 219 218 217 218 218 217 219 223 226 227 229 232 237 242 247 252 256 261 265 269 271 273 274 274 271 260 252 259 269 272 275 278 279 280 281 283 284 286 288 290 292 294 295 295 295 295 295 295 298 300 301 302 303 303 304 304 305 306 307 308 308 309 310 311
221 223 226 228 231 235 237 239 238 237 236 235 237 237 233 228 225 222 221 221 221 220 218 217 218 220 220 221 226 230 231 233 236 242 247 253 257 261 264 267 270 272 273 274 275 276 272 264 259 263 268 271 275 277 279 281 281 283 285 287 289 290 291 291 292 293 293 292 293 295 296 296 297 298 299 300 300 301 301 301 302 302 303 304 305
221 223 226 229 232 236 239 240 240 238 234 231 232 232 229 224 220 220 221 221 221 221 220 219 220 222 223 224 228 232 234 235 240 245 250 254 258 261 264 267 270 272 273 274 275 275 275 273 270 269 270 272 273 273 275 278 279 280 281 283 285 286 287 288 289 290 290 290 290 291 292 292 293 294 294 295 296 296 296 297 298 299 300 301 302
223 225 228 231 234 238 240 242 241 238 233 229 228 227 223 219 215 215 218 219 221 222 222 221 222 224 227 228 232 235 237 239 243 247 251 255 258 261 263 266 269 271 272 273 275 275 276 276 276 275 275 276 276 276 277 278 280 281 283 283 283 283 284 285 285 286 286 287 287 288 289 289 289 289 290 290 291 293 294 296 298 300 300 300 301
226 228 230 233 237 238 239 241 240 237 231 227 225 223 219 215 213 212 214 216 218 220 222 223 225 227 230 232 235 238 241 243 245 248 252 255 258 261 263 265 267 269 271 273 274 276 277 278 279 279 279 279 279 280 281 281 282 284 285 285 284 284 283 283 283 283 284 285 285 285 285 286 287 287 288 289 290 293 295 298 301 303 303 303 301
228 230 232 236 238 238 238 238 238 235 230 226 224 222 217 213 211 210 209 210 211 215 219 222 225 229 232 235 238 241 244 246 248 251 253 255 258 260 263 265 267 269 270 272 274 275 277 278 280 281 282 282 283 283 284 284 284 285 285 285 285 285 285 284 284 284 285 286 286 286 287 288 289 291 293 295 296 298 300 302 304 305 304 303 301
229 230 233 236 237 237 236 236 237 235 230 226 224 221 217 213 210 208 206 204 204 207 212 217 221 225 229 233 237 239 242 245 248 251 253 256 259 261 264 266 269 270 272 273 275 276 278 279 281 283 283 284 285 287 287 288 288 288 288 286 285 286 286 286 287 288 289 289 290 293 295 296 297 299 300 301 301 301 301 302 302 301 300 298 297
229 230 232 234 236 236 235 235 236 236 232 228 225 222 218 213 210 208 207 205 205 207 210 214 218 222 227 231 234 237 240 244 247 251 254 257 260 263 265 267 270 272 274 276 278 279 280 282 283 284 284 285 287 289 289 290 290 290 288 286 287 287 288 290 290 290 291 293 296 299 300 301 301 301 301 301 301 301 299 297 296 294 293 293 292
230 230 231 234 235 235 235 235 236 237 235 231 226 224 221 216 212 211 209 209 210 212 214 217 220 224 229 233 236 239 242 245 249 252 255 258 261 263 265 267 270 272 274 276 278 279 280 281 283 285 287 289 291 291 290 291 291 289 288 287 287 289 291 294 295 296 299 301 300 301 301 300 297 295 294 295 296 296 295 293 290 288 288 290 290
230 230 231 233 234 235 236 237 237 238 238 234 229 226 223 220 217 215 214 214 216 219 222 224 226 230 233 237 240 242 245 248 252 254 256 259 262 264 266 267 268 271 273 276 277 278 279 281 284 287 289 293 294 291 291 291 290 290 289 288 289 292 298 302 303 306 307 303 298 297 297 295 293 292 291 291 291 291 290 289 288 286 287 289 290
230 230 231 231 232 234 237 238 238 239 239 236 232 229 226 224 223 222 222 222 224 227 230 232 235 237 239 242 245 247 249 252 255 258 261 262 263 265 266 266 267 269 271 274 277 279 282 283 286 289 291 293 295 294 293 293 293 293 292 292 296 301 305 307 307 308 307 303 298 297 300 300 296 294 295 295 293 290 287 286 286 286 287 288 288
230 230 230 231 232 235 237 238 239 239 238 236 234 233 230 227 227 228 229 230 231 233 236 239 241 243 245 247 249 251 252 254 258 261 263 263 263 262 262 264 267 270 271 274 277 281 283 286 289 293 294 295 297 299 298 297 298 297 294 296 302 303 304 306 307 309 311 308 302 302 309 312 304 301 305 304 298 292 287 285 286 287 289 288 288
231 232 232 233 234 236 237 239 240 240 239 236 234 233 232 230 230 232 233 234 236 237 240 243 245 247 249 249 251 253 254 254 255 256 257 257 258 260 263 268 272 274 275 277 280 283 286 288 290 293 295 298 300 300 299 299 298 296 295 299 301 299 302 309 313 316 319 312 302 302 310 316 311 304 306 305 299 294 291 290 291 293 294 293 290
232 233 233 234 236 237 238 239 240 240 239 238 236 234 232 230 231 233 234 236 239 241 243 246 248 248 248 250 251 251 248 244 242 245 249 254 259 265 270 273 276 278 279 281 283 286 288 289 290 292 295 297 298 298 298 296 295 295 297 300 300 301 311 320 319 317 315 308 302 301 306 315 314 305 303 304 300 298 297 295 294 294 294 293 291
232 234 235 237 238 238 239 240 241 241 240 239 237 235 232 231 231 233 235 238 242 245 247 248 248 248 248 248 246 242 237 233 235 243 250 257 264 270 274 277 279 281 283 285 286 287 287 288 290 291 293 294 296 297 295 293 294 297 298 301 305 311 317 317 313 312 310 308 307 305 307 314 316 308 307 308 305 304 304 301 297 293 290 288 287
232 234 235 236 237 237 238 239 239 239 238 237 235 234 232 232 232 233 236 239 243 246 248 248 248 248 247 244 239 235 233 234 238 245 253 261 268 273 277 280 282 283 285 286 286 287 287 287 288 289 291 293 294 294 294 294 296 297 299 305 312 314 313 312 314 318 319 318 317 314 313 317 317 313 312 311 309 308 308 305 301 297 291 286 283
230 231 232 233 234 234 235 236 236 235 234 232 231 231 230 230 231 233 236 239 243 245 247 247 248 249 247 240 235 235 237 238 242 248 256 263 270 274 278 280 281 283 284 284 284 285 286 286 288 290 291 292 292 292 293 296 299 301 305 312 315 313 313 317 321 323 324 324 322 318 317 318 318 316 314 312 310 311 311 307 304 299 293 287 281
Height
3241 3242 3242 3242 3243 3243 3243 3243 3244 3244 3244 3244 3244 3244 3244 3245 3245 3245 3245 3245 3245 3245 3245 3246 3246 3246 3246 3246 3246 3246 3247 3247 3247 3247 3247 3247 3247 3248 3248 3248 3248 3248 3248 3248 3248 3248 3248 3248 3248 3248 3248 3248 3248 3247 3247 3247 3247 3247 3247 3246 3246 3245 3245 3245 3244 3244 3244 3243 3243 3243 3242 3242 3241 3241 3240 3240 3239 3238 3238 3237 3236 3236 3235 3234 3233
3242 3242 3243 3243 3244 3244 3244 3244 3245 3245 3245 3245 3245 3245 3245 3245 3245 3245 3245 3246 3246 3246 3246 3246 3246 3246 3246 3246 3247 3247 3247 3247 3248 3248 3247 3248 3248 3248 3248 3248 3248 3248 3248 3249 3249 3249 3249 3248 3249 3249 3249 3249 3248 3248 3248 3248 3248 3247 3247 3247 3247 3246 3246 3245 3245 3244 3244 3244 3244 3243 3243 3242 3242 3241 3241 3240 3239 3239 3238 3237 3236 3235 3234 3233 3233
3243 3243 3243 3244 3244 3244 3245 3245 3245 3245 3246 3246 3246 3246 3246 3246 3246 3246 3246 3246 3247 3247 3247 3247 3247 3247 3246 3247 3247 3247 3248 3248 3248 3248 3248 3248 3248 3248 3248 3248 3248 3249 3249 3249 3249 3249 3249 3249 3249 3249 3249 3249 3249 3249 3248 3248 3248 3248 3248 3248 3247 3247 3246 3246 3246 3245 3245 3244 3244 3244 3243 3243 3242 3242 3241 3240 3239 3239 3238 3237 3236 3235 3234 3233 3232
3244 3244 3244 3245 3245 3245 3245 3246 3246 3246 3246 3246 3247 3247 3247 3247 3247 3247 3247 3247 3247 3247 3247 3247 3247 3247 3247 3247 3247 3248 3248 3248 3248 3248 3248 3248 3248 3249 3249 3249 3249 3249 3249 3249 3249 3249 3249 3249 3249 3249 3250 3250 3250 3249 3248 3248 3248 3248 3248 3248 3248 3248 3247 3247 3246 3246 3245 3245 3245 3244 3244 3243 3242 3241 3241 3240 3239 3238 3237 3236 3235 3234 3233 3232 3232
3245 3245 3245 3246 3246 3246 3247 3247 3247 3247 3247 3247 3247 3247 3248 3248 3248 3248 3248 3248 3248 3248 3248 3248 3248 3248 3248 3248 3248 3248 3249 3249 3249 3249 3249 3249 3249 3249 3249 3249 3249 3249 3249 3249 3250 3250 3250 3250 3250 3250 3250 3250 3250 3249 3249 3248 3249 3249 3249 3249 3248 3248 3248 3247 3247 3246 3246 3245 3245 3244 3244 3243 3242 3241 3240 3239 3238 3238 3237 3236 3235 3234 3233 3232 3231
3245 3246 3246 3247 3247 3247 3248 3248 3248 3248 3248 3248 3248 3248 3248 3249 3249 3249 3248 3248 3248 3248 3248 3248 3249 3248 3248 3248 3248 3249 3249 3249 3250 3250 3249 3249 3249 3249 3249 3249 3249 3249 3249 3250 3250 3250 3250 3250 3250 3250 3250 3250 3250 3249 3249 3249 3249 3249 3249 3249 3249 3249 3248 3247 3247 3246 3246 3245 3245 3244 3243 3242 3241 3240 3239 3238 3238 3237 3236 3235 3234 3233 3232 3232 3231
3246 3247 3247 3247 3248 3248 3249 3249 3249 3249 3249 3249 3249 3249 3249 3249 3249 3249 3249 3249 3249 3249 3249 3249 3249 3249 3249 3249 3249 3249 3249 3250 3250 3250 3250 3250 3250 3249 3249 3250 3250 3250 3250 3250 3250 3250 3250 3250 3250 3250 3250 3250 3249 3249 3250 3249 3249 3249 3249 3249 3249 3249 3248 3248 3247 3246 3246 3245 3245 3244 3243 3242 3241 3240 3239 3238 3237 3236 3235 3234 3234 3233 3232 3231 3230
3247 3247 3248 3248 3249 3249 3249 3250 3250 3250 3250 3250 3250 3250 3250 3250 3250 3250 3250 3250 3250 3250 3249 3249 3249 3249 3249 3249 3249 3249 3250 3250 3250 3250 3250 3250 3250 3250 3250 3250 3250 3250 3250 3250 3250 3250 3250 3250 3250 3250 3250 3250 3250 3250 3250 3250 3249 3249 3249 3249 3249 3249 3249 3248 3247 3247 3246 3245 3244 3243 3242 3241 3240 3239 3238 3237 3236 3236 3235 3234 3233 3232 3231 3231 3230
3247 3248 3248 3249 3249 3250 3250 3250 3250 3250 3250 3250 3251 3251 3251 3251 3250 3250 3251 3251 3251 3250 3250 3250 3250 3250 3250 3249 3249 3250 3250 3250 3251 3251 3251 3250 3250 3250 3250 3250 3250 3250 3250 3251 3251 3251 3250 3250 3250 3250 3250 3250 3250 3250 3250 3250 3249 3249 3249 3249 3249 3249 3249 3248 3248 3247 3246 3245 3244 3243 3242 3241 3240 3239 3238 3237 3236 3236 3235 3234 3233 3232 3231 3230 3229
3247 3248 3248 3249 3249 3250 3251 3251 3251 3251 3251 3251 3251 3251 3251 3251 3251 3251 3251 3251 3251 3251 3251 3250 3250 3250 3250 3250 3250 3250 3250 3251 3251 3251 3251 3251 3251 3251 3250 3250 3250 3250 3251 3251 3251 3251 3251 3251 3251 3251 3251 3250 3250 3250 3250 3250 3250 3249 3249 3249 3249 3249 3249 3248 3248 3247 3246 3245 3244 3243 3242 3241 3240 3239 3238 3238 3237 3236 3235 3234 3233 3232 3231 3230 3229
3247 3248 3249 3249 3250 3250 3251 3251 3252 3251 3251 3251 3251 3251 3251 3251 3251 3251 3251 3251 3251 3251 3251 3251 3251 3251 3251 3250 3250 3250 3250 3251 3251 3251 3251 3251 3251 3251 3251 3251 3251 3251 3251 3251 3251 3251 3251 3251 3251 3251 3251 3251 3251 3251 3250 3250 3250 3249 3249 3249 3249 3249 3249 3248 3247 3247 3246 3245 3244 3243 3242 3241 3240 3240 3239 3238 3237 3236 3235 3234 3233 3232 3231 3230 3229
3247 3248 3249 3249 3250 3251 3251 3252 3252 3252 3251 3251 3251 3251 3251 3252 3252 3251 3251 3251 3251 3251 3252 3252 3251 3250 3250 3250 3250 3250 3251 3251 3251 3252 3252 3252 3252 3252 3252 3251 3251 3251 3250 3251 3251 3251 3252 3252 3252 3251 3251 3251 3251 3251 3251 3251 3250 3250 3249 3249 3249 3249 3248 3247 3247 3246 3245 3245 3244 3243 3242 3241 3240 3240 3239 3238 3237 3236 3235 3234 3233 3232 3231 3230 3229
3248 3248 3249 3249 3250 3251 3251 3252 3252 3252 3252 3252 3252 3251 3252 3252 3252 3252 3252 3252 3251 3251 3252 3252 3251 3251 3250 3250 3250 3250 3251 3251 3252 3252 3252 3252 3252 3252 3252 3252 3252 3251 3251 3251 3251 3251 3252 3252 3252 3252 3251 3251 3251 3251 3251 3251 3251 3250 3250 3249 3249 3248 3248 3247 3247 3246 3245 3245 3244 3243 3242 3241 3240 3240 3239 3238 3237 3236 3235 3234 3233 3232 3231 3230 3229
3248 3248 3249 3249 3250 3251 3251 3252 3252 3252 3252 3252 3252 3252 3252 3252 3252 3252 3252 3252 3251 3251 3251 3251 3251 3251 3251 3251 3250 3250 3251 3251 3252 3252 3252 3253 3253 3253 3253 3252 3252 3252 3252 3251 3252 3252 3252 3252 3252 3252 3252 3252 3252 3252 3252 3251 3251 3251 3250 3250 3249 3249 3248 3247 3247 3246 3245 3244 3243 3243 3242 3241 3240 3239 3239 3238 3237 3236 3235 3234 3233 3232 3231 3230 3229
3248 3248 3249 3249 3250 3250 3251 3251 3252 3252 3252 3252 3252 3252 3252 3252 3252 3252 3252 3252 3251 3251 3251 3251 3251 3251 3250 3251 3251 3251 3251 3251 3252 3252 3253 3254 3254 3254 3254 3253 3253 3253 3253 3252 3252 3253 3252 3252 3253 3253 3252 3252 3252 3252 3252 3252 3252 3251 3251 3250 3249 3249 3248 3247 3247 3246 3245 3244 3243 3242 3242 3241 3240 3239 3239 3238 3237 3236 3235 3234 3233 3232 3231 3230 3229
3248 3248 3249 3249 3250 3250 3251 3251 3252 3252 3252 3252 3252 3253 3253 3252 3252 3252 3252 3252 3252 3251 3252 3252 3251 3251 3251 3251 3251 3251 3251 3252 3252 3253 3253 3254 3254 3254 3254 3254 3255 3254 3254 3254 3254 3253 3253 3253 3253 3253 3253 3253 3253 3253 3253 3253 3252 3252 3251 3250 3249 3249 3248 3247 3247 3246 3245 3244 3243 3242 3241 3241 3240 3239 3239 3238 3237 3236 3235 3234 3233 3232 3231 3230 3229
3247 3248 3248 3249 3250 3250 3251 3252 3252 3252 3252 3252 3253 3253 3253 3253 3252 3252 3252 3252 3252 3252 3252 3252 3252 3251 3251 3251 3251 3251 3251 3252 3253 3253 3254 3254 3255 3255 3255 3255 3255 3255 3255 3255 3255 3254 3254 3254 3254 3254 3254 3254 3254 3253 3253 3253 3252 3252 3251 3250 3249 3249 3248 3247 3247 3246 3245 3244 3243 3242 3241 3241 3240 3239 3239 3238 3237 3236 3235 3234 3233 3232 3231 3230 3229
3247 3248 3248 3249 3250 3251 3251 3252 3252 3252 3252 3253 3253 3253 3253 3253 3253 3253 3252 3252 3252 3252 3252 3252 3252 3252 3251 3251 3251 3251 3252 3252 3253 3254 3254 3255 3255 3255 3255 3256 3256 3256 3256 3255 3255 3255 3255 3255 3255 3254 3254 3254 3254 3254 3254 3253 3253 3252 3251 3250 3250 3249 3248 3248 3247 3246 3245 3244 3244 3243 3242 3241 3240 3240 3239 3238 3237 3236 3235 3234 3233 3232 3231 3230 3229
3246 3247 3248 3249 3250 3250 3251 3252 3252 3252 3252 3253 3253 3253 3253 3253 3253 3253 3253 3253 3252 3252 3252 3252 3253 3252 3252 3251 3251 3252 3252 3253 3253 3254 3255 3255 3255 3256 3256 3256 3256 3256 3256 3256 3256 3256 3256 3255 3255 3255 3255 3254 3254 3254 3254 3253 3253 3252 3252 3251 3250 3250 3249 3248 3247 3247 3246 3245 3244 3243 3242 3241 3240 3240 3239 3238 3237 3236 3235 3234 3233 3232 3231 3230 3229
3246 3247 3248 3249 3249 3250 3251 3251 3252 3252 3252 3252 3253 3253 3253 3253 3253 3253 3253 3253 3253 3253 3253 3253 3253 3253 3253 3252 3252 3252 3253 3253 3254 3254 3255 3255 3256 3256 3256 3256 3256 3256 3256 3256 3256 3256 3256 3255 3255 3255 3255 3255 3255 3255 3254 3254 3253 3253 3252 3252 3251 3250 3250 3249 3248 3247 3246 3246 3245 3244 3243 3242 3241 3240 3239 3238 3237 3236 3235 3234 3233 3232 3231 3230 3229
3245 3246 3247 3248 3249 3250 3250 3251 3251 3252 3252 3252 3253 3253 3253 3253 3253 3254 3254 3254 3253 3253 3253 3253 3253 3253 3253 3253 3253 3253 3253 3253 3254 3254 3255 3255 3255 3256 3256 3256 3256 3256 3256 3256 3256 3256 3256 3256 3256 3255 3255 3255 3255 3255 3254 3254 3254 3253 3253 3252 3251 3251 3250 3249 3248 3248 3247 3246 3245 3244 3243 3242 3241 3240 3239 3238 3237 3236 3235 3234 3233 3232 3231 3230 3229
3244 3245 3246 3248 3248 3249 3250 3250 3251 3251 3251 3252 3252 3253 3253 3253 3253 3254 3254 3254 3254 3254 3254 3254 3254 3254 3254 3254 3254 3253 3253 3254 3254 3255 3255 3255 3255 3256 3256 3256 3256 3256 3256 3256 3256 3256 3256 3256 3256 3256 3256 3255 3255 3255 3255 3255 3254 3254 3253 3252 3252 3251 3250 3250 3249 3248 3247 3246 3245 3244 3243 3242 3241 3239 3238 3238 3237 3236 3235 3234 3233 3232 3231 3230 3228
3243 3244 3245 3247 3248 3248 3249 3250 3250 3251 3251 3251 3252 3252 3253 3253 3253 3254 3254 3254 3254 3254 3254 3254 3254 3254 3254 3254 3254 3254 3254 3254 3255 3255 3255 3255 3256 3256 3256 3256 3256 3256 3256 3256 3256 3256 3257 3257 3256 3256 3256 3256 3255 3255 3255 3255 3255 3254 3253 3253 3252 3252 3251 3250 3249 3248 3247 3246 3245 3244 3243 3242 3241 3240 3239 3238 3237 3236 3235 3234 3233 3232 3230 3229 3227
3242 3243 3244 3245 3247 3248 3248 3249 3250 3250 3250 3251 3251 3252 3252 3253 3253 3254 3254 3254 3254 3254 3255 3255 3255 3255 3255 3255 3255 3255 3255 3255 3255 3255 3255 3256 3256 3257 3257 3256 3256 3256 3256 3256 3256 3257 3257 3257 3257 3257 3256 3256 3256 3256 3255 3255 3255 3254 3254 3253 3253 3252 3251 3250 3249 3249 3248 3247 3245 3244 3243 3242 3241 3240 3239 3238 3237 3236 3235 3234 3233 3231 3230 3228 3227
3241 3242 3243 3244 3245 3246 3247 3248 3249 3249 3250 3250 3251 3251 3252 3252 3253 3253 3254 3254 3254 3255 3255 3255 3255 3255 3255 3255 3255 3256 3256 3255 3255 3255 3256 3256 3257 3257 3257 3257 3257 3257 3257 3257 3257 3257 3257 3257 3257 3257 3257 3257 3256 3256 3256 3255 3255 3255 3254 3254 3253 3252 3251 3250 3250 3249 3248 3247 3246 3245 3244 3243 3241 3240 3239 3238 3237 3236 3235 3234 3232 3231 3229 3227 3226
3240 3241 3242 3243 3244 3245 3246 3247 3247 3248 3249 3249 3250 3251 3251 3252 3252 3253 3253 3254 3254 3255 3255 3255 3256 3256 3256 3256 3256 3256 3256 3256 3256 3256 3257 3257 3257 3257 3257 3257 3257 3257 3257 3257 3258 3258 3258 3257 3257 3257 3257 3257 3257 3257 3256 3256 3255 3255 3254 3254 3253 3252 3251 3251 3250 3249 3248 3247 3246 3245 3244 3243 3242 3241 3240 3239 3237 3236 3235 3233 3232 3230 3228 3227 3226
3238 3239 3240 3241 3242 3243 3244 3245 3246 3247 3248 3249 3249 3250 3251 3251 3252 3252 3253 3254 3254 3255 3255 3255 3256 3256 3256 3256 3256 3256 3257 3257 3257 3257 3258 3258 3258 3258 3258 3258 3258 3258 3258 3258 3258 3258 3258 3258 3258 3258 3258 3258 3257 3257 3257 3256 3256 3255 3254 3254 3253 3252 3252 3251 3250 3249 3248 3248 3247 3246 3245 3244 3242 3241 3240 3239 3237 3236 3235 3233 3231 3230 3228 3226 3225
3235 3237 3238 3239 3240 3241 3242 3243 3244 3245 3246 3247 3248 3249 3250 3250 3251 3252 3252 3253 3254 3254 3255 3255 3256 3256 3257 3257 3257 3257 3257 3258 3258 3258 3258 3259 3259 3259 3259 3259 3259 3259 3259 3259 3259 3259 3259 3259 3258 3258 3258 3258 3257 3257 3257 3256 3256 3255 3254 3254 3253 3252 3252 3251 3250 3250 3249 3248 3247 3246 3245 3243 3242 3241 3240 3239 3237 3236 3235 3233 3231 3229 3228 3226 3224
3233 3234 3235 3237 3238 3239 3240 3241 3242 3243 3245 3246 3247 3248 3248 3249 3250 3251 3251 3252 3253 3254 3255 3255 3256 3256 3257 3257 3257 3258 3258 3258 3259 3259 3259 3259 3259 3259 3259 3259 3259 3259 3259 3259 3259 3259 3259 3259 3258 3258 3258 3257 3257 3257 3256 3256 3255 3255 3254 3254 3253 3252 3252 3251 3250 3249 3248 3247 3246 3245 3244 3243 3242 3241 3240 3238 3237 3236 3234 3232 3231 3229 3227 3225 3223
3231 3232 3233 3234 3236 3237 3238 3239 3240 3242 3243 3244 3245 3246 3247 3248 3249 3250 3250 3251 3252 3253 3254 3255 3256 3256 3257 3257 3258 3258 3258 3258 3259 3259 3259 3259 3259 3260 3260 3260 3259 3259 3259 3259 3259 3259 3259 3258 3258 3258 3257 3257 3256 3256 3256 3255 3255 3254 3254 3253 3253 3252 3252 3251 3250 3249 3248 3247 3246 3245 3243 3242 3241 3240 3239 3238 3236 3235 3234 3232 3230 3229 3227 3225 3223
3229 3230 3231 3232 3234 3235 3236 3238 3239 3240 3241 3242 3243 3244 3245 3246 3247 3248 3249 3250 3251 3252 3253 3254 3255 3256 3257 3257 3257 3258 3258 3258 3259 3259 3259 3259 3260 3260 3260 3260 3260 3259 3260 3259 3259 3259 3259 3258 3258 3257 3257 3257 3256 3256 3255 3255 3254 3254 3253 3253 3252 3252 3251 3250 3249 3248 3247 3246 3245 3243 3242 3241 3240 3239 3238 3236 3235 3234 3233 3231 3230 3228 3226 3224 3223
3227 3228 3229 3230 3232 3233 3234 3236 3237 3238 3239 3240 3241 3242 3243 3244 3245 3246 3247 3248 3249 3251 3252 3253 3254 3255 3256 3256 3257 3257 3258 3258 3258 3259 3259 3259 3259 3260 3260 3260 3259 3259 3259 3259 3259 3259 3258 3258 3258 3257 3257 3257 3256 3256 3255 3254 3254 3253 3253 3252 3251 3251 3250 3249 3248 3247 3246 3244 3243 3241 3240 3239 3238 3237 3236 3235 3234 3233 3231 3230 3228 3227 3225 3223 3221
3225 3226 3227 3229 3230 3231 3232 3234 3235 3236 3237 3238 3239 3239 3240 3242 3243 3244 3245 3246 3248 3249 3251 3252 3253 3254 3255 3255 3256 3256 3257 3257 3258 3258 3258 3258 3258 3259 3259 3259 3259 3259 3258 3258 3258 3258 3258 3257 3257 3257 3256 3256 3256 3255 3254 3254 3253 3252 3251 3251 3250 3249 3248 3248 3247 3246 3244 3242 3240 3239 3238 3237 3236 3235 3234 3233 3232 3231 3229 3228 3227 3225 3224 3222 3220
3223 3224 3225 3227 3228 3229 3230 3231 3233 3234 3235 3236 3236 3237 3238 3239 3240 3241 3243 3244 3245 3247 3248 3250 3251 3252 3253 3254 3255 3255 3256 3256 3257 3257 3257 3257 3258 3258 3258 3258 3258 3258 3257 3257 3257 3257 3257 3257 3256 3255 3255 3254 3254 3254 3253 3252 3251 3250 3250 3249 3248 3248 3247 3246 3245 3244 3242 3240 3238 3237 3236 3235 3234 3233 3232 3231 3230 3229 3228 3226 3225 3223 3222 3220 3218
3221 3222 3224 3225 3226 3227 3228 3229 3231 3232 3232 3233 3234 3235 3236 3237 3238 3239 3240 3241 3243 3244 3246 3248 3249 3250 3251 3252 3253 3254 3255 3255 3256 3256 3256 3256 3256 3257 3257 3257 3256 3256 3256 3256 3255 3255 3255 3256 3255 3254 3253 3253 3252 3252 3251 3250 3249 3249 3248 3248 3247 3246 3245 3244 3242 3241 3240 3238 3236 3235 3234 3233 3231 3230 3229 3228 3227 3226 3225 3224 3222 3221 3219 3217 3216
3219 3220 3222 3223 3224 3225 3226 3227 3229 3230 3230 3231 3232 3233 3234 3235 3236 3237 3238 3239 3240 3242 3244 3246 3247 3248 3249 3251 3252 3252 3253 3254 3254 3255 3255 3255 3255 3255 3255 3255 3255 3254 3254 3254 3253 3253 3253 3253 3254 3253 3252 3251 3251 3250 3249 3248 3247 3247 3246 3246 3245 3244 3243 3241 3240 3238 3237 3236 3234 3233 3232 3230 3229 3227 3226 3224 3223 3222 3221 3220 3219 3218 3216 3215 3213
3217 3218 3220 3221 3222 3223 3224 3226 3227 3228 3229 3229 3230 3231 3232 3233 3233 3234 3235 3237 3238 3240 3242 3243 3245 3246 3247 3249 3250 3250 3251 3252 3253 3253 3253 3253 3253 3253 3253 3253 3253 3252 3252 3251 3251 3250 3250 3250 3251 3250 3250 3249 3249 3248 3248 3246 3245 3244 3244 3243 3242 3241 3240 3238 3237 3236 3234 3233 3231 3230 3228 3227 3226 3224 3222 3220 3219 3218 3217 3216 3215 3214 3213 3211 3210
3215 3216 3217 3219 3220 3221 3222 3224 3225 3226 3227 3227 3228 3229 3230 3231 3231 3232 3233 3235 3236 3238 3240 3241 3243 3244 3245 3247 3248 3248 3249 3250 3251 3252 3252 3251 3251 3251 3251 3251 3251 3250 3249 3249 3248 3248 3247 3247 3247 3247 3247 3246 3245 3245 3245 3244 3242 3241 3241 3240 3239 3238 3237 3235 3234 3233 3231 3229 3227 3226 3225 3223 3221 3220 3218 3217 3215 3214 3213 3212 3212 3211 3210 3208 3207
3212 3214 3215 3216 3218 3219 3220 3221 3222 3224 3225 3225 3226 3227 3228 3229 3230 3231 3232 3233 3235 3236 3238 3239 3240 3242 3243 3244 3245 3246 3247 3248 3249 3249 3249 3249 3249 3249 3249 3249 3248 3247 3247 3246 3245 3245 3244 3243 3243 3243 3243 3242 3242 3241 3241 3240 3239 3238 3237 3236 3234 3234 3234 3232 3230 3229 3228 3225 3223 3222 3221 3219 3217 3215 3214 3213 3212 3211 3210 3209 3208 3207 3206 3205 3203
3210 3211 3213 3214 3215 3217 3218 3219 3220 3221 3222 3223 3224 3225 3227 3227 3229 3230 3231 3232 3233 3235 3236 3237 3238 3239 3241 3242 3243 3244 3245 3246 3246 3247 3247 3247 3246 3246 3246 3246 3245 3244 3244 3243 3243 3242 3241 3240 3239 3239 3238 3238 3238 3238 3237 3236 3235 3235 3234 3231 3229 3229 3228 3227 3226 3226 3224 3222 3219 3218 3217 3216 3215 3213 3212 3211 3210 3208 3207 3205 3204 3203 3201 3200 3198
3207 3209 3210 3212 3213 3214 3215 3216 3218 3218 3220 3221 3222 3224 3225 3226 3227 3228 3230 3231 3232 3233 3234 3235 3236 3237 3239 3240 3241 3242 3242 3243 3243 3243 3244 3244 3243 3243 3243 3243 3242 3241 3241 3241 3240 3239 3238 3237 3236 3236 3234 3233 3233 3233 3233 3232 3231 3230 3229 3227 3225 3224 3224 3223 3222 3222 3221 3218 3216 3215 3214 3213 3212 3211 3209 3207 3206 3204 3202 3201 3200 3198 3196 3195 3193
3204 3206 3208 3209 3210 3211 3213 3214 3215 3216 3217 3219 3221 3222 3223 3225 3226 3227 3228 3229 3231 3232 3233 3234 3235 3236 3237 3238 3238 3239 3240 3240 3241 3241 3241 3241 3241 3241 3241 3240 3239 3239 3238 3238 3237 3237 3236 3234 3233 3232 3230 3230 3230 3230 3229 3228 3227 3226 3224 3222 3221 3220 3220 3219 3219 3219 3218 3216 3214 3213 3212 3210 3208 3206 3204 3202 3201 3199 3196 3195 3194 3192 3190 3189 3188
3202 3203 3205 3206 3207 3209 3210 3211 3212 3214 3215 3217 3219 3220 3221 3223 3224 3225 3226 3228 3229 3230 3231 3232 3233 3234 3235 3236 3236 3237 3238 3238 3239 3239 3239 3239 3238 3238 3238 3237 3237 3236 3235 3235 3234 3234 3233 3231 3230 3229 3227 3226 3226 3226 3225 3224 3223 3221 3220 3219 3217 3216 3216 3217 3217 3218 3218 3215 3211 3210 3209 3206 3202 3199 3198 3197 3195 3193 3191 3189 3188 3186 3184 3183 3182
3199 3200 3202 3203 3205 3206 3207 3209 3210 3211 3213 3215 3217 3218 3219 3221 3222 3223 3225 3226 3227 3227 3229 3230 3231 3232 3233 3233 3234 3234 3235 3236 3236 3236 3236 3236 3236 3236 3235 3235 3234 3234 3233 3232 3231 3230 3230 3228 3227 3226 3224 3223 3222 3222 3222 3221 3219 3217 3216 3215 3214 3213 3215 3217 3217 3217 3216 3211 3205 3204 3203 3199 3194 3192 3191 3191 3189 3187 3185 3184 3182 3180 3179 3177 3175
3196 3197 3198 3200 3202 3203 3204 3206 3208 3209 3211 3213 3214 3216 3217 3219 3220 3221 3222 3223 3224 3225 3226 3227 3228 3229 3230 3231 3231 3232 3233 3233 3233 3233 3233 3233 3233 3233 3232 3232 3231 3231 3230 3229 3228 3227 3226 3225 3223 3223 3222 3220 3218 3218 3218 3216 3214 3213 3211 3211 3211 3212 3213 3212 3210 3211 3210 3205 3200 3197 3196 3192 3189 3187 3186 3186 3184 3181 3179 3177 3176 3174 3173 3171 3169
3192 3193 3195 3197 3199 3200 3202 3203 3205 3206 3208 3210 3212 3214 3215 3217 3218 3219 3220 3221 3221 3222 3223 3224 3225 3226 3227 3228 3228 3229 3230 3230 3230 3230 3230 3230 3230 3229 3229 3229 3229 3228 3227 3226 3225 3224 3222 3221 3219 3219 3219 3217 3215 3214 3213 3211 3210 3208 3206 3208 3209 3209 3209 3208 3206 3205 3205 3201 3196 3192 3189 3187 3185 3183 3182 3182 3179 3176 3173 3171 3170 3169 3167 3166 3164
3188 3190 3192 3194 3196 3197 3199 3200 3202 3203 3205 3208 3209 3211 3213 3214 3215 3216 3217 3218 3219 3220 3221 3222 3223 3224 3224 3225 3225 3226 3226 3227 3227 3227 3227 3227 3227 3226 3226 3227 3227 3226 3225 3224 3223 3221 3219 3218 3216 3215 3215 3214 3212 3211 3209 3207 3205 3202 3201 3204 3204 3202 3204 3205 3201 3200 3200 3197 3192 3187 3183 3183 3181 3178 3178 3178 3173 3171 3170 3168 3166 3165 3163 3160 3159
3185 3187 3189 3191 3192 3194 3196 3197 3198 3200 3203 3205 3206 3208 3210 3211 3212 3213 3214 3215 3216 3217 3218 3219 3220 3221 3221 3222 3222 3223 3223 3224 3224 3225 3225 3224 3224 3224 3224 3224 3224 3223 3222 3221 3220 3219 3217 3215 3213 3211 3211 3211 3210 3208 3206 3203 3201 3197 3195 3197 3197 3196 3199 3199 3195 3194 3194 3191 3188 3184 3179 3178 3177 3172 3171 3172 3167 3164 3165 3164 3163 3162 3160 3156 3154
3182 3184 3186 3187 3189 3191 3192 3193 3195 3197 3199 3201 3203 3205 3206 3207 3208 3209 3210 3212 3212 3213 3215 3216 3217 3217 3218 3219 3219 3220 3220 3221 3222 3222 3222 3222 3221 3221 3221 3221 3221 3220 3219 3218 3218 3217 3214 3212 3210 3209 3208 3208 3207 3205 3203 3199 3197 3194 3191 3192 3193 3193 3195 3194 3191 3189 3188 3185 3184 3182 3175 3173 3173 3167 3163 3163 3161 3158 3157 3157 3157 3156 3154 3152 3150
3179 3181 3183 3184 3186 3187 3188 3189 3191 3193 3196 3197 3199 3201 3202 3204 3205 3206 3207 3208 3209 3210 3212 3213 3214 3214 3215 3216 3216 3217 3217 3218 3219 3219 3219 3219 3218 3218 3218 3218 3217 3217 3216 3216 3214 3213 3211 3209 3208 3206 3205 3204 3203 3201 3199 3196 3194 3190 3187 3188 3190 3189 3188 3188 3185 3183 3182 3181 3179 3176 3171 3168 3167 3163 3157 3153 3152 3151 3150 3149 3148 3148 3147 3145 3144
3177 3178 3180 3181 3182 3183 3185 3186 3188 3190 3191 3193 3195 3197 3199 3200 3201 3202 3203 3204 3205 3206 3208 3209 3210 3211 3212 3213 3213 3214 3214 3216 3216 3216 3216 3216 3215 3215 3215 3215 3214 3214 3213 3212 3211 3209 3208 3206 3204 3203 3202 3201 3199 3197 3195 3193 3190 3186 3183 3183 3185 3182 3180 3179 3178 3175 3175 3175 3172 3167 3164 3162 3160 3158 3154 3147 3141 3141 3142 3140 3140 3140 3138 3136 3136